[[{"header":{"parameterUnit":"m.s-1","parameterCategory":1,"la1":30.2991,"la2":30.254,"lo1":-89.0895,"lo2":-89.0444,"dy":0.0017,"dx":0.0017,"nx":28,"ny":28,"refTime":"2025-04-15T09:00:00:Z","depth":0,"parameterNumber":2,"parameterNumberName":"U-component_of_WINDS"},"data":[0,0,0,0,0,0,0,0,0,0,0,0,0,0,0,0,0,0,0,0,0,0,0,0,0,0,0,0,0,0,0,0,0,0,0,0,0,0,0,0,0,0,0,0,0,0,0,0,0,0,0,0,0,0,0,0,0,0,-0.717,-0.717,0,-0.7167,-0.7167,-0.7167,-0.7159,-0.7159,-0.7159,-0.7159,-0.7156,-0.7156,-0.7156,0,0,0,0,0,0,0,0,0,0,0,0,0,-0.7171,-0.7171,-0.717,-0.717,-0.717,-0.7167,-0.7167,-0.7167,-0.7159,-0.7159,-0.7159,-0.7158,-0.7156,-0.7156,-0.7156,0,0,0,0,0,0,0,0,0,0,0,0,0,-0.7169,-0.7171,-0.717,-0.7166,-0.7165,-0.7167,-0.7167,-0.7167,-0.7159,-0.7159,-0.7159,-0.7158,-0.7156,-0.7156,-0.7156,-0.7162,0,0,-0.7156,-0.7156,0,0,0,0,0,0,0,0,-0.7169,-0.7169,-0.7167,-0.7166,-0.7166,-0.7163,-0.7166,-0.7165,-0.7159,-0.7162,-0.7159,-0.7158,-0.7158,-0.7158,-0.7158,-0.7161,-0.7161,-0.7156,-0.7156,-0.7156,-0.7156,0,0,0,0,0,0,0,-0.717,-0.7169,-0.7169,-0.7167,-0.7166,-0.7164,-0.7164,-0.7166,-0.7161,-0.7161,-0.7161,-0.716,-0.7158,-0.7158,-0.7158,-0.7161,-0.7156,-0.7156,-0.7156,-0.7156,-0.717,-0.717,0,0,0,0,0,0,-0.717,-0.717,-0.7169,-0.7169,-0.7167,-0.7165,-0.7164,-0.7164,-0.7161,-0.7161,-0.7161,-0.716,-0.7158,-0.7158,-0.7158,-0.7165,-0.7156,-0.7156,-0.7157,-0.7169,-0.717,-0.717,0,0,0,0,0,0,-0.717,-0.717,-0.7169,-0.7169,-0.7169,-0.7165,-0.7165,-0.7164,-0.7164,-0.7161,-0.716,-0.7161,-0.7158,-0.7158,-0.7161,-0.7165,-0.7157,-0.7157,-0.7169,-0.717,-0.717,-0.7179,0,0,0,0,0,0,-0.717,-0.717,-0.7172,-0.7169,-0.7169,-0.7172,-0.7165,-0.7164,-0.7164,-0.7164,-0.7161,-0.7161,-0.7158,-0.7161,-0.7161,-0.7165,-0.7157,-0.7169,-0.7169,-0.717,-0.7178,-0.718,-0.7181,0,0,0,0,0,-0.717,-0.7175,-0.7172,-0.7172,-0.7171,-0.7172,-0.7172,-0.7168,-0.7165,-0.7167,-0.7165,-0.7161,-0.7164,-0.7161,-0.7161,-0.7165,-0.7169,-0.7169,-0.717,-0.7178,-0.7179,-0.7181,0,0,0,0,0,0,-0.7178,-0.7174,-0.7171,-0.7175,-0.7174,-0.7171,-0.7173,-0.717,-0.717,-0.7169,-0.7165,-0.7164,-0.7168,-0.7167,-0.7163,-0.7171,-0.7166,-0.7167,-0.7172,-0.7173,-0.7174,-0.7175,-0.7157,0,0,0,0,0,-0.718,-0.7181,-0.7178,-0.7181,-0.7181,-0.7177,-0.7178,-0.7175,-0.7174,-0.7173,-0.7171,-0.717,-0.7171,-0.7172,-0.7173,-0.7178,-0.7178,-0.7181,-0.7182,-0.7183,-0.7184,-0.7187,-0.7189,-0.7172,-0.7172,-0.7172,0,0,-0.7185,-0.7183,-0.7184,-0.7183,-0.7182,-0.7183,-0.7177,-0.7179,-0.718,-0.7173,-0.7176,-0.7175,-0.7174,-0.7178,-0.718,-0.7177,-0.7188,-0.7184,-0.7185,-0.7185,-0.7188,-0.719,-0.7191,-0.7173,-0.7173,-0.7173,0,0,-0.7194,-0.7192,-0.7195,-0.7194,-0.7193,-0.719,-0.7191,-0.7189,-0.7187,-0.719,-0.7186,-0.7187,-0.7189,-0.7188,-0.7188,-0.7198,-0.7195,-0.7198,-0.7205,-0.7208,-0.721,-0.7211,-0.7215,-0.7216,-0.7199,-0.7199,-0.7199,0,-0.72,-0.7202,-0.7197,-0.7199,-0.72,-0.7194,-0.7197,-0.7197,-0.7195,-0.7196,-0.7193,-0.7195,-0.7194,-0.7198,-0.7201,-0.7201,-0.7202,-0.7199,-0.721,-0.7211,-0.7212,-0.7216,-0.7217,-0.7199,-0.7199,-0.7199,-0.7199,0,-0.7209,-0.7211,-0.7213,-0.7213,-0.7213,-0.7216,-0.7212,-0.7213,-0.721,-0.7208,-0.7212,-0.721,-0.7211,-0.7211,-0.7208,-0.7216,-0.7214,-0.721,-0.7205,-0.7214,-0.7218,-0.7219,-0.72,-0.72,-0.72,-0.72,0,0,-0.7223,-0.722,-0.7221,-0.7221,-0.7219,-0.722,-0.7223,-0.7224,-0.7225,-0.7224,-0.7227,-0.7229,-0.7225,-0.7225,-0.7223,-0.7225,-0.7234,-0.7222,-0.7221,-0.7225,-0.7243,-0.7246,-0.7248,-0.7232,-0.7232,-0.7232,-0.7243,0,-0.7233,-0.7237,-0.7233,-0.7239,-0.724,-0.7235,-0.7237,-0.7237,-0.7235,-0.7237,-0.7235,-0.7236,-0.7231,-0.7232,-0.7234,-0.7233,-0.7238,-0.7232,-0.7235,-0.7235,-0.7236,-0.725,-0.7253,-0.7263,-0.7244,-0.7245,-0.7245,0,-0.7244,-0.7244,-0.7249,-0.7248,-0.7248,-0.7251,-0.7251,-0.7252,-0.7252,-0.725,-0.7251,-0.7247,-0.725,-0.7245,-0.7249,-0.7245,-0.7246,-0.7246,-0.7246,-0.7247,-0.7241,-0.7251,-0.7267,-0.7268,-0.7247,-0.7247,-0.7247,0,-0.7254,-0.7256,-0.726,-0.7259,-0.7257,-0.7259,-0.7258,-0.7258,-0.7258,-0.7259,-0.7259,-0.726,-0.7261,-0.7262,-0.7259,-0.7255,-0.7264,-0.7258,-0.7264,-0.7264,-0.7266,-0.7266,-0.7283,-0.7266,-0.7266,-0.7266,-0.7266,0,-0.7265,-0.7269,-0.7264,-0.7267,-0.7271,-0.7267,-0.7271,-0.727,-0.7269,-0.7272,-0.7267,-0.7269,-0.7265,-0.7267,-0.7265,-0.727,-0.727,-0.7269,-0.7269,-0.727,-0.727,-0.7271,-0.7271,-0.7266,-0.7266,-0.7266,-0.7266,0,-0.7278,-0.7275,-0.7279,-0.7277,-0.7276,-0.7279,-0.7278,-0.728,-0.7278,-0.7281,-0.7282,-0.7279,-0.7281,-0.7278,-0.728,-0.7279,-0.7285,-0.7283,-0.7286,-0.7285,-0.7291,-0.7291,-0.7309,-0.7312,-0.7293,-0.7293,-0.7293,0,-0.7286,-0.7288,-0.7287,-0.7288,-0.7287,-0.7289,-0.729,-0.7286,-0.7287,-0.7287,-0.729,-0.7292,-0.7293,-0.7297,-0.7295,-0.7297,-0.7295,-0.7302,-0.7296,-0.7297,-0.7296,-0.7297,-0.7297,-0.7303,-0.7303,-0.7304,-0.7304,0,-0.7299,-0.7298,-0.7299,-0.73,-0.7301,-0.7302,-0.7302,-0.7303,-0.73,-0.7301,-0.7303,-0.7304,-0.7307,-0.7309,-0.731,-0.731,-0.7306,-0.7306,-0.7307,-0.7309,-0.731,-0.731,-0.729,-0.7305,-0.7305,-0.7305,-0.7305,-0.7305,-0.731,-0.7313,-0.7312,-0.7314,-0.7314,-0.7314,-0.7317,-0.7315,-0.7317,-0.7318,-0.7316,-0.7319,-0.7319,-0.732,-0.732,-0.7323,-0.732,-0.7322,-0.7323,-0.7324,-0.7325,-0.7309,-0.7323,-0.7323,-0.7323,-0.7323,-0.7323,0,-0.7325,-0.7324,-0.7326,-0.7326,-0.7328,-0.7324,-0.7325,-0.7326,-0.7329,-0.7329,-0.7331,-0.7334,-0.7336,-0.7334,-0.7336,-0.7339,-0.7338,-0.734,-0.734,-0.734,-0.7327,-0.7326,-0.7341,-0.7341,-0.7341,-0.7341,-0.7341,-0.7341,-0.7332,-0.7337,-0.7335,-0.734,-0.7339,-0.7342,-0.7343,-0.7343,-0.7343,-0.7347,-0.7349,-0.7348,-0.7348,-0.735,-0.7352,-0.7351,-0.7353,-0.7356,-0.7355,-0.7343,-0.7341,-0.7339,-0.7338,-0.7356,-0.7356,-0.7368,-0.7368,-0.7368]},{"header":{"parameterUnit":"m.s-1","parameterCategory":1,"la1":30.2991,"la2":30.254,"lo1":-89.0895,"lo2":-89.0444,"dy":0.0017,"dx":0.0017,"nx":28,"ny":28,"refTime":"2025-04-15T09:00:00:Z","depth":0,"parameterNumber":3,"parameterNumberName":"V-component_of_WINDS"},"data":[0,0,0,0,0,0,0,0,0,0,0,0,0,0,0,0,0,0,0,0,0,0,0,0,0,0,0,0,0,0,0,0,0,0,0,0,0,0,0,0,0,0,0,0,0,0,0,0,0,0,0,0,0,0,0,0,0,0,2.2018,2.2018,0,2.198,2.1979,2.1979,2.1904,2.1903,2.1901,2.19,2.186,2.186,2.186,0,0,0,0,0,0,0,0,0,0,0,0,0,2.2024,2.2024,2.2018,2.2018,2.2017,2.198,2.1979,2.1979,2.1904,2.1902,2.1901,2.1899,2.1859,2.186,2.186,0,0,0,0,0,0,0,0,0,0,0,0,0,2.2007,2.2024,2.2018,2.1975,2.1971,2.198,2.1979,2.1978,2.1905,2.1902,2.19,2.1898,2.1859,2.186,2.186,2.1907,0,0,2.1862,2.1862,0,0,0,0,0,0,0,0,2.2008,2.2007,2.1982,2.1978,2.1974,2.1944,2.1966,2.1954,2.1905,2.193,2.19,2.1897,2.1889,2.1887,2.1885,2.1905,2.1903,2.1862,2.1862,2.1862,2.1862,0,0,0,0,0,0,0,2.2009,2.2008,2.2003,2.1982,2.1977,2.1957,2.1952,2.1964,2.1922,2.1928,2.1922,2.1919,2.1887,2.1885,2.1883,2.1903,2.1862,2.1862,2.1862,2.1862,2.1955,2.1957,0,0,0,0,0,0,2.2017,2.2009,2.2004,2.2002,2.1986,2.1959,2.1953,2.1956,2.1922,2.1915,2.1921,2.1915,2.1885,2.1883,2.1882,2.1931,2.1862,2.1862,2.1863,2.1953,2.1955,2.1958,0,0,0,0,0,0,2.2017,2.2017,2.2005,2.2004,2.2001,2.1961,2.1965,2.1956,2.1954,2.1917,2.1909,2.1926,2.1883,2.1881,2.19,2.1929,2.1863,2.1863,2.195,2.1953,2.1956,2.2033,0,0,0,0,0,0,2.2018,2.2018,2.2036,2.2005,2.2001,2.2026,2.1966,2.1957,2.1955,2.1948,2.192,2.1913,2.1881,2.19,2.1901,2.1928,2.1863,2.1947,2.1952,2.1955,2.2027,2.2038,2.2047,0,0,0,0,0,2.2018,2.206,2.2037,2.2037,2.2024,2.2028,2.2026,2.1988,2.1958,2.1975,2.195,2.1914,2.1926,2.1903,2.1903,2.1931,2.1945,2.195,2.1955,2.2023,2.2036,2.2047,0,0,0,0,0,0,2.2096,2.2055,2.203,2.2063,2.2049,2.2015,2.2036,2.2004,2.1999,2.1992,2.1946,2.194,2.1965,2.195,2.1925,2.1972,2.193,2.1935,2.1981,2.1993,2.2003,2.2005,2.1864,0,0,0,0,0,2.2117,2.2124,2.2088,2.212,2.2115,2.2077,2.2077,2.2049,2.2034,2.2028,2.2004,2.199,2.199,2.1991,2.1989,2.2025,2.2016,2.2044,2.2054,2.2063,2.2067,2.2081,2.2093,2.1974,2.1974,2.1974,0,0,2.216,2.2138,2.2146,2.2135,2.2122,2.2129,2.2073,2.2084,2.2088,2.2029,2.2045,2.2028,2.2008,2.2035,2.2046,2.2023,2.2098,2.2069,2.2076,2.2076,2.2088,2.2099,2.2109,2.1977,2.1977,2.1976,0,0,2.2242,2.2228,2.2252,2.2239,2.2218,2.2192,2.2198,2.2168,2.2154,2.2169,2.2124,2.2128,2.213,2.2117,2.2111,2.2185,2.215,2.2185,2.2237,2.2251,2.2261,2.2269,2.2292,2.2302,2.219,2.219,2.2191,0,2.2298,2.2308,2.2268,2.2281,2.2276,2.2222,2.2245,2.2234,2.2214,2.2211,2.2187,2.2185,2.2169,2.219,2.2208,2.2206,2.2209,2.2188,2.2263,2.227,2.2277,2.2299,2.2309,2.2195,2.2194,2.2194,2.2193,0,2.2377,2.2384,2.2406,2.2387,2.2385,2.2403,2.2363,2.2366,2.2337,2.2313,2.2328,2.2306,2.2297,2.23,2.2273,2.2317,2.2303,2.2272,2.2227,2.2294,2.2313,2.2322,2.2201,2.2199,2.2198,2.2197,0,0,2.2508,2.2464,2.2473,2.2462,2.2435,2.2439,2.2453,2.2444,2.2446,2.2433,2.2442,2.2444,2.2413,2.2406,2.2377,2.239,2.2446,2.2356,2.2355,2.2371,2.2489,2.2511,2.2522,2.2423,2.2424,2.2426,2.2489,0,2.2582,2.2604,2.2567,2.2597,2.2602,2.2549,2.2561,2.2545,2.2522,2.2522,2.2496,2.2497,2.2458,2.2453,2.2464,2.2437,2.2468,2.2432,2.2429,2.2429,2.2434,2.2533,2.2557,2.2619,2.2497,2.2498,2.2499,0,2.2672,2.2663,2.2694,2.2661,2.2661,2.2673,2.266,2.2661,2.264,2.2622,2.2613,2.2578,2.2587,2.2545,2.2556,2.2532,2.2528,2.2515,2.2516,2.2513,2.2467,2.253,2.2638,2.2646,2.2512,2.2511,2.251,0,2.2761,2.2757,2.2773,2.2766,2.2729,2.2738,2.2723,2.27,2.2696,2.2684,2.268,2.267,2.2664,2.2656,2.2619,2.2592,2.2633,2.2589,2.2617,2.2617,2.2627,2.2626,2.2733,2.2628,2.2628,2.2628,2.2627,0,2.2847,2.2867,2.2812,2.2823,2.2842,2.2798,2.2819,2.2798,2.2778,2.2782,2.2736,2.2741,2.2691,2.269,2.266,2.2672,2.267,2.2655,2.2646,2.2658,2.2659,2.2653,2.2647,2.263,2.2629,2.2629,2.2629,0,2.295,2.2914,2.2928,2.2892,2.2883,2.2899,2.2866,2.2873,2.2847,2.2852,2.2851,2.2809,2.2805,2.2766,2.2754,2.2733,2.2755,2.274,2.2763,2.2757,2.2786,2.2783,2.2891,2.2901,2.2792,2.2793,2.2794,0,2.3006,2.302,2.2984,2.2983,2.297,2.297,2.2965,2.2921,2.2918,2.2893,2.2902,2.2894,2.2885,2.2879,2.2847,2.2836,2.2819,2.2857,2.2817,2.2827,2.2816,2.2815,2.2815,2.2866,2.2867,2.2868,2.2869,0,2.3109,2.309,2.3085,2.3073,2.3068,2.3056,2.3042,2.3044,2.2995,2.2993,2.2987,2.298,2.2966,2.2957,2.294,2.2923,2.2887,2.2882,2.2887,2.2898,2.291,2.2901,2.2784,2.288,2.2879,2.2878,2.2877,2.2877,2.3188,2.3197,2.3172,2.3167,2.3151,2.3138,2.3142,2.3115,2.311,2.3095,2.3069,2.3067,2.3042,2.3015,2.3001,2.2997,2.2976,2.2985,2.2986,2.2989,2.2994,2.2912,2.2994,2.2993,2.2993,2.2993,2.2992,0,2.3287,2.3268,2.3263,2.3244,2.3239,2.3206,2.3187,2.3185,2.3184,2.3164,2.3155,2.3147,2.3138,2.3104,2.3091,2.3094,2.3077,2.3091,2.309,2.3086,2.3014,2.301,2.3105,2.3105,2.3105,2.3105,2.3105,2.3105,2.3337,2.3349,2.3327,2.3329,2.3309,2.3307,2.3298,2.3285,2.3269,2.3262,2.3253,2.3232,2.3205,2.3189,2.3178,2.3168,2.3164,2.3184,2.3168,2.3102,2.3091,2.3081,2.3076,2.3184,2.3184,2.324,2.324,2.3241]}]]